Year,Month,Day,Hour,Minute,Value (Times are PST for temperature in C)
2014,11,27,00,00,10.70
2014,11,27,00,01,10.70
2014,11,27,00,02,10.80
2014,11,27,00,03,10.80
2014,11,27,00,04,10.80
2014,11,27,00,05,10.80
2014,11,27,00,06,10.80
2014,11,27,00,07,10.80
2014,11,27,00,08,10.80
2014,11,27,00,09,10.80
2014,11,27,00,10,10.80
2014,11,27,00,11,10.80
2014,11,27,00,12,10.80
2014,11,27,00,13,10.80
2014,11,27,00,14,10.90
2014,11,27,00,15,10.90
2014,11,27,00,16,10.90
2014,11,27,00,17,10.90
2014,11,27,00,18,10.90
2014,11,27,00,19,10.90
2014,11,27,00,20,10.90
2014,11,27,00,21,10.90
2014,11,27,00,22,10.90
2014,11,27,00,23,11.00
2014,11,27,00,24,11.00
2014,11,27,00,25,11.00
2014,11,27,00,26,11.10
2014,11,27,00,27,11.10
2014,11,27,00,28,11.10
2014,11,27,00,29,11.10
2014,11,27,00,30,11.10
2014,11,27,00,31,11.10
2014,11,27,00,32,11.20
2014,11,27,00,33,11.20
2014,11,27,00,34,11.20
2014,11,27,00,35,11.20
2014,11,27,00,36,11.20
2014,11,27,00,37,11.30
2014,11,27,00,38,11.30
2014,11,27,00,39,11.30
2014,11,27,00,40,11.40
2014,11,27,00,41,11.40
2014,11,27,00,42,11.40
2014,11,27,00,43,11.40
2014,11,27,00,44,11.50
2014,11,27,00,45,11.50
2014,11,27,00,46,11.50
2014,11,27,00,47,11.60
2014,11,27,00,48,11.60
2014,11,27,00,49,11.60
2014,11,27,00,50,11.60
2014,11,27,00,51,11.60
2014,11,27,00,52,11.60
2014,11,27,00,53,11.70
2014,11,27,00,54,11.70
2014,11,27,00,55,11.70
2014,11,27,00,56,11.70
2014,11,27,00,57,11.70
2014,11,27,00,58,11.70
2014,11,27,00,59,11.70
2014,11,27,01,00,11.70
2014,11,27,01,01,11.80
2014,11,27,01,02,11.80
2014,11,27,01,03,11.80
2014,11,27,01,04,11.80
2014,11,27,01,05,11.80
2014,11,27,01,06,11.80
2014,11,27,01,07,11.80
2014,11,27,01,08,11.80
2014,11,27,01,09,11.90
2014,11,27,01,10,11.90
2014,11,27,01,11,12.00
2014,11,27,01,12,12.00
2014,11,27,01,13,12.00
2014,11,27,01,14,12.00
2014,11,27,01,15,12.10
2014,11,27,01,16,12.10
2014,11,27,01,17,12.10
2014,11,27,01,18,12.20
2014,11,27,01,19,12.20
2014,11,27,01,20,12.20
2014,11,27,01,21,12.30
2014,11,27,01,22,12.30
2014,11,27,01,23,12.30
2014,11,27,01,24,12.30
2014,11,27,01,25,12.30
2014,11,27,01,26,12.30
2014,11,27,01,27,12.40
2014,11,27,01,28,12.40
2014,11,27,01,29,12.40
2014,11,27,01,30,12.40
2014,11,27,01,31,12.50
2014,11,27,01,32,12.50
2014,11,27,01,33,12.60
2014,11,27,01,34,12.60
2014,11,27,01,35,12.70
2014,11,27,01,36,12.70
2014,11,27,01,37,12.80
2014,11,27,01,38,12.90
2014,11,27,01,39,13.00
2014,11,27,01,40,13.00
2014,11,27,01,41,13.10
2014,11,27,01,42,13.10
2014,11,27,01,43,13.10
2014,11,27,01,44,13.10
2014,11,27,01,45,13.10
2014,11,27,01,46,13.10
2014,11,27,01,47,13.10
2014,11,27,01,48,13.20
2014,11,27,01,49,13.20
2014,11,27,01,50,13.20
2014,11,27,01,51,13.20
2014,11,27,01,52,13.20
2014,11,27,01,53,13.30
2014,11,27,01,54,13.30
2014,11,27,01,55,13.30
2014,11,27,01,56,13.30
2014,11,27,01,57,13.30
2014,11,27,01,58,13.30
2014,11,27,01,59,13.30
2014,11,27,02,00,13.30
2014,11,27,02,01,13.30
2014,11,27,02,02,13.20
2014,11,27,02,03,13.20
2014,11,27,02,04,13.20
2014,11,27,02,05,13.20
2014,11,27,02,06,13.30
2014,11,27,02,07,13.30
2014,11,27,02,08,13.30
2014,11,27,02,09,13.40
2014,11,27,02,10,13.40
2014,11,27,02,11,13.40
2014,11,27,02,12,13.50
2014,11,27,02,13,13.40
2014,11,27,02,14,13.40
2014,11,27,02,15,13.40
2014,11,27,02,16,13.40
2014,11,27,02,17,13.40
2014,11,27,02,18,13.40
2014,11,27,02,19,13.40
2014,11,27,02,20,13.30
2014,11,27,02,21,13.30
2014,11,27,02,22,13.30
2014,11,27,02,23,13.30
2014,11,27,02,24,13.30
2014,11,27,02,25,13.40
2014,11,27,02,26,13.40
2014,11,27,02,27,13.40
2014,11,27,02,28,13.40
2014,11,27,02,29,13.40
2014,11,27,02,30,13.40
2014,11,27,02,31,13.40
2014,11,27,02,32,13.40
2014,11,27,02,33,13.40
2014,11,27,02,34,13.40
2014,11,27,02,35,13.40
2014,11,27,02,36,13.40
2014,11,27,02,37,13.40
2014,11,27,02,38,13.30
2014,11,27,02,39,13.40
2014,11,27,02,40,13.30
2014,11,27,02,41,13.40
2014,11,27,02,42,13.40
2014,11,27,02,43,13.30
2014,11,27,02,44,13.30
2014,11,27,02,45,13.40
2014,11,27,02,46,13.40
2014,11,27,02,47,13.30
2014,11,27,02,48,13.40
2014,11,27,02,49,13.30
2014,11,27,02,50,13.30
2014,11,27,02,51,13.30
2014,11,27,02,52,13.30
2014,11,27,02,53,13.40
2014,11,27,02,54,13.40
2014,11,27,02,55,13.40
2014,11,27,02,56,13.40
2014,11,27,02,57,13.40
2014,11,27,02,58,13.40
2014,11,27,02,59,13.40
2014,11,27,03,00,13.40
2014,11,27,03,01,13.40
2014,11,27,03,02,13.40
2014,11,27,03,03,13.40
2014,11,27,03,04,13.40
2014,11,27,03,05,13.40
2014,11,27,03,06,13.40
2014,11,27,03,07,13.40
2014,11,27,03,08,13.40
2014,11,27,03,09,13.40
2014,11,27,03,10,13.40
2014,11,27,03,11,13.40
2014,11,27,03,12,13.40
2014,11,27,03,13,13.40
2014,11,27,03,14,13.30
2014,11,27,03,15,13.30
2014,11,27,03,16,13.30
2014,11,27,03,17,13.30
2014,11,27,03,18,13.30
2014,11,27,03,19,13.40
2014,11,27,03,20,13.40
2014,11,27,03,21,13.40
2014,11,27,03,22,13.40
2014,11,27,03,23,13.40
2014,11,27,03,24,13.40
2014,11,27,03,25,13.40
2014,11,27,03,26,13.50
2014,11,27,03,27,13.50
2014,11,27,03,28,13.40
2014,11,27,03,29,13.50
2014,11,27,03,30,13.40
2014,11,27,03,31,13.40
2014,11,27,03,32,13.40
2014,11,27,03,33,13.50
2014,11,27,03,34,13.50
2014,11,27,03,35,13.50
2014,11,27,03,36,13.60
2014,11,27,03,37,13.60
2014,11,27,03,38,13.60
2014,11,27,03,39,13.60
2014,11,27,03,40,13.70
2014,11,27,03,41,13.70
2014,11,27,03,42,13.70
2014,11,27,03,43,13.70
2014,11,27,03,44,13.70
2014,11,27,03,45,13.70
2014,11,27,03,46,13.70
2014,11,27,03,47,13.70
2014,11,27,03,48,13.70
2014,11,27,03,49,13.70
2014,11,27,03,50,13.70
2014,11,27,03,51,13.70
2014,11,27,03,52,13.70
2014,11,27,03,53,13.60
2014,11,27,03,54,13.50
2014,11,27,03,55,13.40
2014,11,27,03,56,13.40
2014,11,27,03,57,13.30
2014,11,27,03,58,13.20
2014,11,27,03,59,13.00
2014,11,27,04,00,12.90
2014,11,27,04,01,12.80
2014,11,27,04,02,12.70
2014,11,27,04,03,12.70
2014,11,27,04,04,12.60
2014,11,27,04,05,12.50
2014,11,27,04,06,12.50
2014,11,27,04,07,12.40
2014,11,27,04,08,12.40
2014,11,27,04,09,12.40
2014,11,27,04,10,12.40
2014,11,27,04,11,12.40
2014,11,27,04,12,12.30
2014,11,27,04,13,12.30
2014,11,27,04,14,12.30
2014,11,27,04,15,12.20
2014,11,27,04,16,12.20
2014,11,27,04,17,12.20
2014,11,27,04,18,12.10
2014,11,27,04,19,12.10
2014,11,27,04,20,12.10
2014,11,27,04,21,12.10
2014,11,27,04,22,12.00
2014,11,27,04,23,12.00
2014,11,27,04,24,12.00
2014,11,27,04,25,12.00
2014,11,27,04,26,12.00
2014,11,27,04,27,12.00
2014,11,27,04,28,11.90
2014,11,27,04,29,11.90
2014,11,27,04,30,11.90
2014,11,27,04,31,11.90
2014,11,27,04,32,11.90
2014,11,27,04,33,11.90
2014,11,27,04,34,11.90
2014,11,27,04,35,11.90
2014,11,27,04,36,11.90
2014,11,27,04,37,11.80
2014,11,27,04,38,11.80
2014,11,27,04,39,11.80
2014,11,27,04,40,11.80
2014,11,27,04,41,11.80
2014,11,27,04,42,11.80
2014,11,27,04,43,11.80
2014,11,27,04,44,11.80
2014,11,27,04,45,11.80
2014,11,27,04,46,11.80
2014,11,27,04,47,11.80
2014,11,27,04,48,11.70
2014,11,27,04,49,11.70
2014,11,27,04,50,11.70
2014,11,27,04,51,11.70
2014,11,27,04,52,11.70
2014,11,27,04,53,11.70
2014,11,27,04,54,11.70
2014,11,27,04,55,11.70
2014,11,27,04,56,11.70
2014,11,27,04,57,11.70
2014,11,27,04,58,11.70
2014,11,27,04,59,11.70
2014,11,27,05,00,11.70
2014,11,27,05,01,11.70
2014,11,27,05,02,11.70
2014,11,27,05,03,11.70
2014,11,27,05,04,11.70
2014,11,27,05,05,11.70
2014,11,27,05,06,11.70
2014,11,27,05,07,11.70
2014,11,27,05,08,11.70
2014,11,27,05,09,11.70
2014,11,27,05,10,11.70
2014,11,27,05,11,11.70
2014,11,27,05,12,11.70
2014,11,27,05,13,11.70
2014,11,27,05,14,11.70
2014,11,27,05,15,11.70
2014,11,27,05,16,11.70
2014,11,27,05,17,11.70
2014,11,27,05,18,11.70
2014,11,27,05,19,11.70
2014,11,27,05,20,11.70
2014,11,27,05,21,11.70
2014,11,27,05,22,11.70
2014,11,27,05,23,11.70
2014,11,27,05,24,11.70
2014,11,27,05,25,11.60
2014,11,27,05,26,11.60
2014,11,27,05,27,11.60
2014,11,27,05,28,11.60
2014,11,27,05,29,11.50
2014,11,27,05,30,11.40
2014,11,27,05,31,11.30
2014,11,27,05,32,11.30
2014,11,27,05,33,11.20
2014,11,27,05,34,11.20
2014,11,27,05,35,11.10
2014,11,27,05,36,11.00
2014,11,27,05,37,11.00
2014,11,27,05,38,11.00
2014,11,27,05,39,10.90
2014,11,27,05,40,10.90
2014,11,27,05,41,10.90
2014,11,27,05,42,10.90
2014,11,27,05,43,10.80
2014,11,27,05,44,10.80
2014,11,27,05,45,10.80
2014,11,27,05,46,10.80
2014,11,27,05,47,10.80
2014,11,27,05,48,10.80
2014,11,27,05,49,10.70
2014,11,27,05,50,10.70
2014,11,27,05,51,10.70
2014,11,27,05,52,10.70
2014,11,27,05,53,10.70
2014,11,27,05,54,10.70
2014,11,27,05,55,10.70
2014,11,27,05,56,10.70
2014,11,27,05,57,10.60
2014,11,27,05,58,10.60
2014,11,27,05,59,10.60
2014,11,27,06,00,10.60
2014,11,27,06,01,10.60
2014,11,27,06,02,10.60
2014,11,27,06,03,10.60
2014,11,27,06,04,10.60
2014,11,27,06,05,10.60
2014,11,27,06,06,10.50
2014,11,27,06,07,10.50
2014,11,27,06,08,10.50
2014,11,27,06,09,10.50
2014,11,27,06,10,10.50
2014,11,27,06,11,10.40
2014,11,27,06,12,10.40
2014,11,27,06,13,10.40
2014,11,27,06,14,10.40
2014,11,27,06,15,10.40
2014,11,27,06,16,10.40
2014,11,27,06,17,10.40
2014,11,27,06,18,10.40
2014,11,27,06,19,10.40
2014,11,27,06,20,10.40
2014,11,27,06,21,10.40
2014,11,27,06,22,10.40
2014,11,27,06,23,10.40
2014,11,27,06,24,10.40
2014,11,27,06,25,10.40
2014,11,27,06,26,10.40
2014,11,27,06,27,10.40
2014,11,27,06,28,10.40
2014,11,27,06,29,10.40
2014,11,27,06,30,10.40
2014,11,27,06,31,10.40
2014,11,27,06,32,10.40
2014,11,27,06,33,10.40
2014,11,27,06,34,10.50
2014,11,27,06,35,10.50
2014,11,27,06,36,10.50
2014,11,27,06,37,10.50
2014,11,27,06,38,10.50
2014,11,27,06,39,10.50
2014,11,27,06,40,10.50
2014,11,27,06,41,10.50
2014,11,27,06,42,10.50
2014,11,27,06,43,10.50
2014,11,27,06,44,10.50
2014,11,27,06,45,10.50
2014,11,27,06,46,10.60
2014,11,27,06,47,10.60
2014,11,27,06,48,10.60
2014,11,27,06,49,10.60
2014,11,27,06,50,10.60
2014,11,27,06,51,10.60
2014,11,27,06,52,10.60
2014,11,27,06,53,10.60
2014,11,27,06,54,10.60
2014,11,27,06,55,10.60
2014,11,27,06,56,10.60
2014,11,27,06,57,10.60
2014,11,27,06,58,10.60
2014,11,27,06,59,10.60
2014,11,27,07,00,10.60
2014,11,27,07,01,10.60
2014,11,27,07,02,10.60
2014,11,27,07,03,10.60
2014,11,27,07,04,10.60
2014,11,27,07,05,10.60
2014,11,27,07,06,10.60
2014,11,27,07,07,10.60
2014,11,27,07,08,10.60
2014,11,27,07,09,10.60
2014,11,27,07,10,10.60
2014,11,27,07,11,10.60
2014,11,27,07,12,10.60
2014,11,27,07,13,10.60
2014,11,27,07,14,10.60
2014,11,27,07,15,10.60
2014,11,27,07,16,10.60
2014,11,27,07,17,10.60
2014,11,27,07,18,10.60
2014,11,27,07,19,10.60
2014,11,27,07,20,10.60
2014,11,27,07,21,10.60
2014,11,27,07,22,10.60
2014,11,27,07,23,10.60
2014,11,27,07,24,10.60
2014,11,27,07,25,10.60
2014,11,27,07,26,10.50
2014,11,27,07,27,10.50
2014,11,27,07,28,10.50
2014,11,27,07,29,10.50
2014,11,27,07,30,10.50
2014,11,27,07,31,10.50
2014,11,27,07,32,10.50
2014,11,27,07,33,10.50
2014,11,27,07,34,10.50
2014,11,27,07,35,10.50
2014,11,27,07,36,10.50
2014,11,27,07,37,10.50
2014,11,27,07,38,10.40
2014,11,27,07,39,10.40
2014,11,27,07,40,10.40
2014,11,27,07,41,10.40
2014,11,27,07,42,10.50
2014,11,27,07,43,10.40
2014,11,27,07,44,10.40
2014,11,27,07,45,10.40
2014,11,27,07,46,10.50
2014,11,27,07,47,10.50
2014,11,27,07,48,10.50
2014,11,27,07,49,10.50
2014,11,27,07,50,10.50
2014,11,27,07,51,10.50
2014,11,27,07,52,10.40
2014,11,27,07,53,10.40
2014,11,27,07,54,10.40
2014,11,27,07,55,10.40
2014,11,27,07,56,10.40
2014,11,27,07,57,10.40
2014,11,27,07,58,10.40
2014,11,27,07,59,10.40
2014,11,27,08,00,10.40
2014,11,27,08,01,10.40
2014,11,27,08,02,10.40
2014,11,27,08,03,10.50
2014,11,27,08,04,10.50
2014,11,27,08,05,10.50
2014,11,27,08,06,10.50
2014,11,27,08,07,10.50
2014,11,27,08,08,10.50
2014,11,27,08,09,10.50
2014,11,27,08,10,10.50
2014,11,27,08,11,10.50
2014,11,27,08,12,10.50
2014,11,27,08,13,10.50
2014,11,27,08,14,10.50
2014,11,27,08,15,10.50
2014,11,27,08,16,10.50
2014,11,27,08,17,10.50
2014,11,27,08,18,10.50
2014,11,27,08,19,10.50
2014,11,27,08,20,10.50
2014,11,27,08,21,10.60
2014,11,27,08,22,10.60
2014,11,27,08,23,10.60
2014,11,27,08,24,10.60
2014,11,27,08,25,10.60
2014,11,27,08,26,10.60
2014,11,27,08,27,10.60
2014,11,27,08,28,10.60
2014,11,27,08,29,10.60
2014,11,27,08,30,10.60
2014,11,27,08,31,10.60
2014,11,27,08,32,10.60
2014,11,27,08,33,10.70
2014,11,27,08,34,10.70
2014,11,27,08,35,10.70
2014,11,27,08,36,10.70
2014,11,27,08,37,10.70
2014,11,27,08,38,10.80
2014,11,27,08,39,10.80
2014,11,27,08,40,10.80
2014,11,27,08,41,10.80
2014,11,27,08,42,10.80
2014,11,27,08,43,10.80
2014,11,27,08,44,10.80
2014,11,27,08,45,10.90
2014,11,27,08,46,10.90
2014,11,27,08,47,10.90
2014,11,27,08,48,11.00
2014,11,27,08,49,11.00
2014,11,27,08,50,11.00
2014,11,27,08,51,11.10
2014,11,27,08,52,11.10
2014,11,27,08,53,11.10
2014,11,27,08,54,11.10
2014,11,27,08,55,11.20
2014,11,27,08,56,11.20
2014,11,27,08,57,11.20
2014,11,27,08,58,11.20
2014,11,27,08,59,11.30
2014,11,27,09,00,11.30
2014,11,27,09,01,11.30
2014,11,27,09,02,11.30
2014,11,27,09,03,11.30
2014,11,27,09,04,11.40
2014,11,27,09,05,11.40
2014,11,27,09,06,11.40
2014,11,27,09,07,11.50
2014,11,27,09,08,11.50
2014,11,27,09,09,11.60
2014,11,27,09,10,11.60
2014,11,27,09,11,11.60
2014,11,27,09,12,11.60
2014,11,27,09,13,11.60
2014,11,27,09,14,11.60
2014,11,27,09,15,11.70
2014,11,27,09,16,11.70
2014,11,27,09,17,11.70
2014,11,27,09,18,11.80
2014,11,27,09,19,11.80
2014,11,27,09,20,11.80
2014,11,27,09,21,11.80
2014,11,27,09,22,11.90
2014,11,27,09,23,11.90
2014,11,27,09,24,11.90
2014,11,27,09,25,12.00
2014,11,27,09,26,12.00
2014,11,27,09,27,12.10
2014,11,27,09,28,12.10
2014,11,27,09,29,12.10
2014,11,27,09,30,12.20
2014,11,27,09,31,12.20
2014,11,27,09,32,12.30
2014,11,27,09,33,12.30
2014,11,27,09,34,12.30
2014,11,27,09,35,12.40
2014,11,27,09,36,12.40
2014,11,27,09,37,12.40
2014,11,27,09,38,12.50
2014,11,27,09,39,12.50
2014,11,27,09,40,12.60
2014,11,27,09,41,12.60
2014,11,27,09,42,12.60
2014,11,27,09,43,12.60
2014,11,27,09,44,12.60
2014,11,27,09,45,12.70
2014,11,27,09,46,12.70
2014,11,27,09,47,12.70
2014,11,27,09,48,12.70
2014,11,27,09,49,12.80
2014,11,27,09,50,12.80
2014,11,27,09,51,12.80
2014,11,27,09,52,12.80
2014,11,27,09,53,12.90
2014,11,27,09,54,12.90
2014,11,27,09,55,12.90
2014,11,27,09,56,12.90
2014,11,27,09,57,13.00
2014,11,27,09,58,13.00
2014,11,27,09,59,13.00
2014,11,27,10,00,13.10
2014,11,27,10,01,13.20
2014,11,27,10,02,13.20
2014,11,27,10,03,13.30
2014,11,27,10,04,13.40
2014,11,27,10,05,13.50
2014,11,27,10,06,13.60
2014,11,27,10,07,13.70
2014,11,27,10,08,13.80
2014,11,27,10,09,13.80
2014,11,27,10,10,13.90
2014,11,27,10,11,13.90
2014,11,27,10,12,14.00
2014,11,27,10,13,14.00
2014,11,27,10,14,14.10
2014,11,27,10,15,14.10
2014,11,27,10,16,14.20
2014,11,27,10,17,14.20
2014,11,27,10,18,14.30
2014,11,27,10,19,14.30
2014,11,27,10,20,14.30
2014,11,27,10,21,14.40
2014,11,27,10,22,14.40
2014,11,27,10,23,14.40
2014,11,27,10,24,14.40
2014,11,27,10,25,14.50
2014,11,27,10,26,14.50
2014,11,27,10,27,14.60
2014,11,27,10,28,14.70
2014,11,27,10,29,14.70
2014,11,27,10,30,14.80
2014,11,27,10,31,14.80
2014,11,27,10,32,14.80
2014,11,27,10,33,14.90
2014,11,27,10,34,14.90
2014,11,27,10,35,14.90
2014,11,27,10,36,14.90
2014,11,27,10,37,14.90
2014,11,27,10,38,15.00
2014,11,27,10,39,15.00
2014,11,27,10,40,15.00
2014,11,27,10,41,15.00
2014,11,27,10,42,15.10
2014,11,27,10,43,15.10
2014,11,27,10,44,15.10
2014,11,27,10,45,15.10
2014,11,27,10,46,15.10
2014,11,27,10,47,15.20
2014,11,27,10,48,15.20
2014,11,27,10,49,15.30
2014,11,27,10,50,15.30
2014,11,27,10,51,15.30
2014,11,27,10,52,15.30
2014,11,27,10,53,15.30
2014,11,27,10,54,15.30
2014,11,27,10,55,15.40
2014,11,27,10,56,15.40
2014,11,27,10,57,15.40
2014,11,27,10,58,15.40
2014,11,27,10,59,15.50
2014,11,27,11,00,15.50
2014,11,27,11,01,15.50
2014,11,27,11,02,15.60
2014,11,27,11,03,15.60
2014,11,27,11,04,15.70
2014,11,27,11,05,15.70
2014,11,27,11,06,15.70
2014,11,27,11,07,15.80
2014,11,27,11,08,15.80
2014,11,27,11,09,15.80
2014,11,27,11,10,15.80
2014,11,27,11,11,15.80
2014,11,27,11,12,15.80
2014,11,27,11,13,15.80
2014,11,27,11,14,15.90
2014,11,27,11,15,15.90
2014,11,27,11,16,15.90
2014,11,27,11,17,15.90
2014,11,27,11,18,15.90
2014,11,27,11,19,16.00
2014,11,27,11,20,16.00
2014,11,27,11,21,16.00
2014,11,27,11,22,16.00
2014,11,27,11,23,15.90
2014,11,27,11,24,15.90
2014,11,27,11,25,15.90
2014,11,27,11,26,15.90
2014,11,27,11,27,15.90
2014,11,27,11,28,15.90
2014,11,27,11,29,15.90
2014,11,27,11,30,15.90
2014,11,27,11,31,15.80
2014,11,27,11,32,15.80
2014,11,27,11,33,15.80
2014,11,27,11,34,15.80
2014,11,27,11,35,15.80
2014,11,27,11,36,15.70
2014,11,27,11,37,15.60
2014,11,27,11,38,15.40
2014,11,27,11,39,15.30
2014,11,27,11,40,15.20
2014,11,27,11,41,15.10
2014,11,27,11,42,14.90
2014,11,27,11,43,14.80
2014,11,27,11,44,14.70
2014,11,27,11,45,14.60
2014,11,27,11,46,14.40
2014,11,27,11,47,14.20
2014,11,27,11,48,14.00
2014,11,27,11,49,13.90
2014,11,27,11,50,13.70
2014,11,27,11,51,13.60
2014,11,27,11,52,13.50
2014,11,27,11,53,13.40
2014,11,27,11,54,13.40
2014,11,27,11,55,13.40
2014,11,27,11,56,13.30
2014,11,27,11,57,13.30
2014,11,27,11,58,13.30
2014,11,27,11,59,13.20
2014,11,27,12,00,13.20
2014,11,27,12,01,13.20
2014,11,27,12,02,13.20
2014,11,27,12,03,13.20
2014,11,27,12,04,13.20
2014,11,27,12,05,13.20
2014,11,27,12,06,13.20
2014,11,27,12,07,13.20
2014,11,27,12,08,13.20
2014,11,27,12,09,13.10
2014,11,27,12,10,13.10
2014,11,27,12,11,13.00
2014,11,27,12,12,13.00
2014,11,27,12,13,13.00
2014,11,27,12,14,13.00
2014,11,27,12,15,12.90
2014,11,27,12,16,12.90
2014,11,27,12,17,12.90
2014,11,27,12,18,12.90
2014,11,27,12,19,12.80
2014,11,27,12,20,12.80
2014,11,27,12,21,12.80
2014,11,27,12,22,12.80
2014,11,27,12,23,12.80
2014,11,27,12,24,12.90
2014,11,27,12,25,12.90
2014,11,27,12,26,12.90
2014,11,27,12,27,12.90
2014,11,27,12,28,12.90
2014,11,27,12,29,13.00
2014,11,27,12,30,13.00
2014,11,27,12,31,13.10
2014,11,27,12,32,13.10
2014,11,27,12,33,13.10
2014,11,27,12,34,13.20
2014,11,27,12,35,13.30
2014,11,27,12,36,13.40
2014,11,27,12,37,13.60
2014,11,27,12,38,13.90
2014,11,27,12,39,14.10
2014,11,27,12,40,14.20
2014,11,27,12,41,14.40
2014,11,27,12,42,14.50
2014,11,27,12,43,14.60
2014,11,27,12,44,14.60
2014,11,27,12,45,14.60
2014,11,27,12,46,14.70
2014,11,27,12,47,14.70
2014,11,27,12,48,14.70
2014,11,27,12,49,14.60
2014,11,27,12,50,14.60
2014,11,27,12,51,14.60
2014,11,27,12,52,14.60
2014,11,27,12,53,14.60
2014,11,27,12,54,14.60
2014,11,27,12,55,14.60
2014,11,27,12,56,14.60
2014,11,27,12,57,14.60
2014,11,27,12,58,14.60
2014,11,27,12,59,14.60
2014,11,27,13,00,14.60
2014,11,27,13,01,14.60
2014,11,27,13,02,14.60
2014,11,27,13,03,14.60
2014,11,27,13,04,14.60
2014,11,27,13,05,14.60
2014,11,27,13,06,14.60
2014,11,27,13,07,14.60
2014,11,27,13,08,14.60
2014,11,27,13,09,14.70
2014,11,27,13,10,14.70
2014,11,27,13,11,14.70
2014,11,27,13,12,14.80
2014,11,27,13,13,14.80
2014,11,27,13,14,14.90
2014,11,27,13,15,14.90
2014,11,27,13,16,14.90
2014,11,27,13,17,14.90
2014,11,27,13,18,14.90
2014,11,27,13,19,14.90
2014,11,27,13,20,14.90
2014,11,27,13,21,14.80
2014,11,27,13,22,14.80
2014,11,27,13,23,14.80
2014,11,27,13,24,14.80
2014,11,27,13,25,14.80
2014,11,27,13,26,14.80
2014,11,27,13,27,14.80
2014,11,27,13,28,14.80
2014,11,27,13,29,14.80
2014,11,27,13,30,14.80
2014,11,27,13,31,14.80
2014,11,27,13,32,14.70
2014,11,27,13,33,14.80
2014,11,27,13,34,14.80
2014,11,27,13,35,14.80
2014,11,27,13,36,14.80
2014,11,27,13,37,14.70
2014,11,27,13,38,14.70
2014,11,27,13,39,14.70
2014,11,27,13,40,14.70
2014,11,27,13,41,14.70
2014,11,27,13,42,14.70
2014,11,27,13,43,14.70
2014,11,27,13,44,14.70
2014,11,27,13,45,14.70
2014,11,27,13,46,14.70
2014,11,27,13,47,14.70
2014,11,27,13,48,14.70
2014,11,27,13,49,14.70
2014,11,27,13,50,14.70
2014,11,27,13,51,14.70
2014,11,27,13,52,14.80
2014,11,27,13,53,14.80
2014,11,27,13,54,14.80
2014,11,27,13,55,14.90
2014,11,27,13,56,14.90
2014,11,27,13,57,14.90
2014,11,27,13,58,14.90
2014,11,27,13,59,15.00
2014,11,27,14,00,15.00
2014,11,27,14,01,14.90
2014,11,27,14,02,14.90
2014,11,27,14,03,14.90
2014,11,27,14,04,14.90
2014,11,27,14,05,14.90
2014,11,27,14,06,14.90
2014,11,27,14,07,14.90
2014,11,27,14,08,14.90
2014,11,27,14,09,14.90
2014,11,27,14,10,14.80
2014,11,27,14,11,14.80
2014,11,27,14,12,14.80
2014,11,27,14,13,14.70
2014,11,27,14,14,14.70
2014,11,27,14,15,14.70
2014,11,27,14,16,14.70
2014,11,27,14,17,14.70
2014,11,27,14,18,14.70
2014,11,27,14,19,14.70
2014,11,27,14,20,14.80
2014,11,27,14,21,14.80
2014,11,27,14,22,14.80
2014,11,27,14,23,14.80
2014,11,27,14,24,14.80
2014,11,27,14,25,14.80
2014,11,27,14,26,14.80
2014,11,27,14,27,14.80
2014,11,27,14,28,14.80
2014,11,27,14,29,14.80
2014,11,27,14,30,14.80
2014,11,27,14,31,14.80
2014,11,27,14,32,14.80
2014,11,27,14,33,14.80
2014,11,27,14,34,14.80
2014,11,27,14,35,14.80
2014,11,27,14,36,14.80
2014,11,27,14,37,14.80
2014,11,27,14,38,14.80
2014,11,27,14,39,14.80
2014,11,27,14,40,14.80
2014,11,27,14,41,14.80
2014,11,27,14,42,14.70
2014,11,27,14,43,14.70
2014,11,27,14,44,14.70
2014,11,27,14,45,14.70
2014,11,27,14,46,14.70
2014,11,27,14,47,14.60
2014,11,27,14,48,14.60
2014,11,27,14,49,14.50
2014,11,27,14,50,14.50
2014,11,27,14,51,14.40
2014,11,27,14,52,14.40
2014,11,27,14,53,14.40
2014,11,27,14,54,14.30
2014,11,27,14,55,14.30
2014,11,27,14,56,14.30
2014,11,27,14,57,14.30
2014,11,27,14,58,14.30
2014,11,27,14,59,14.30
2014,11,27,15,00,14.30
2014,11,27,15,01,14.30
2014,11,27,15,02,14.20
2014,11,27,15,03,14.20
2014,11,27,15,04,14.20
2014,11,27,15,05,14.20
2014,11,27,15,06,14.20
2014,11,27,15,07,14.20
2014,11,27,15,08,14.20
2014,11,27,15,09,14.20
2014,11,27,15,10,14.20
2014,11,27,15,11,14.20
2014,11,27,15,12,14.20
2014,11,27,15,13,14.20
2014,11,27,15,14,14.20
2014,11,27,15,15,14.20
2014,11,27,15,16,14.10
2014,11,27,15,17,14.10
2014,11,27,15,18,14.10
2014,11,27,15,19,14.10
2014,11,27,15,20,14.10
2014,11,27,15,21,14.10
2014,11,27,15,22,14.10
2014,11,27,15,23,14.00
2014,11,27,15,24,14.00
2014,11,27,15,25,14.00
2014,11,27,15,26,13.90
2014,11,27,15,27,13.90
2014,11,27,15,28,13.90
2014,11,27,15,29,13.90
2014,11,27,15,30,13.90
2014,11,27,15,31,13.80
2014,11,27,15,32,13.80
2014,11,27,15,33,13.80
2014,11,27,15,34,13.80
2014,11,27,15,35,13.80
2014,11,27,15,36,13.70
2014,11,27,15,37,13.70
2014,11,27,15,38,13.70
2014,11,27,15,39,13.70
2014,11,27,15,40,13.60
2014,11,27,15,41,13.60
2014,11,27,15,42,13.60
2014,11,27,15,43,13.60
2014,11,27,15,44,13.60
2014,11,27,15,45,13.60
2014,11,27,15,46,13.50
2014,11,27,15,47,13.50
2014,11,27,15,48,13.50
2014,11,27,15,49,13.50
2014,11,27,15,50,13.60
2014,11,27,15,51,13.60
2014,11,27,15,52,13.60
2014,11,27,15,53,13.60
2014,11,27,15,54,13.60
2014,11,27,15,55,13.60
2014,11,27,15,56,13.50
2014,11,27,15,57,13.50
2014,11,27,15,58,13.50
2014,11,27,15,59,13.50
2014,11,27,16,00,13.40
2014,11,27,16,01,13.40
2014,11,27,16,02,13.40
2014,11,27,16,03,13.40
2014,11,27,16,04,13.30
2014,11,27,16,05,13.30
2014,11,27,16,06,13.30
2014,11,27,16,07,13.30
2014,11,27,16,08,13.30
2014,11,27,16,09,13.30
2014,11,27,16,10,13.30
2014,11,27,16,11,13.40
2014,11,27,16,12,13.40
2014,11,27,16,13,13.40
2014,11,27,16,14,13.40
2014,11,27,16,15,13.40
2014,11,27,16,16,13.40
2014,11,27,16,17,13.40
2014,11,27,16,18,13.40
2014,11,27,16,19,13.40
2014,11,27,16,20,13.40
2014,11,27,16,21,13.40
2014,11,27,16,22,13.40
2014,11,27,16,23,13.40
2014,11,27,16,24,13.40
2014,11,27,16,25,13.40
2014,11,27,16,26,13.40
2014,11,27,16,27,13.40
2014,11,27,16,28,13.40
2014,11,27,16,29,13.40
2014,11,27,16,30,13.40
2014,11,27,16,31,13.30
2014,11,27,16,32,13.30
2014,11,27,16,33,13.30
2014,11,27,16,34,13.30
2014,11,27,16,35,13.30
2014,11,27,16,36,13.30
2014,11,27,16,37,13.30
2014,11,27,16,38,13.30
2014,11,27,16,39,13.30
2014,11,27,16,40,13.30
2014,11,27,16,41,13.30
2014,11,27,16,42,13.40
2014,11,27,16,43,13.40
2014,11,27,16,44,13.40
2014,11,27,16,45,13.40
2014,11,27,16,46,13.40
2014,11,27,16,47,13.40
2014,11,27,16,48,13.50
2014,11,27,16,49,13.50
2014,11,27,16,50,13.50
2014,11,27,16,51,13.40
2014,11,27,16,52,13.40
2014,11,27,16,53,13.40
2014,11,27,16,54,13.40
2014,11,27,16,55,13.40
2014,11,27,16,56,13.40
2014,11,27,16,57,13.40
2014,11,27,16,58,13.40
2014,11,27,16,59,13.40
2014,11,27,17,00,13.50
2014,11,27,17,01,13.40
2014,11,27,17,02,13.40
2014,11,27,17,03,13.50
2014,11,27,17,04,13.50
2014,11,27,17,05,13.40
2014,11,27,17,06,13.40
2014,11,27,17,07,13.50
2014,11,27,17,08,13.50
2014,11,27,17,09,13.50
2014,11,27,17,10,13.60
2014,11,27,17,11,13.60
2014,11,27,17,12,13.60
2014,11,27,17,13,13.60
2014,11,27,17,14,13.50
2014,11,27,17,15,13.50
2014,11,27,17,16,13.50
2014,11,27,17,17,13.50
2014,11,27,17,18,13.50
2014,11,27,17,19,13.50